Regional Weather Roundup
Issued by NWS Cleveland, OH

Home | Current Version | Previous Version | Graphics & Text | Print | Product List | Glossary On
Versions: 1 2 3 4 5 6 7 8 9 10 11 12 13 14 15 16 17 18 19 20 21 22 23 24 25 26 27 28 29 30 31 32 33 34 35 36 37 38 39 40 41 42 43 44 45 46 47 48 49 50
000
ASUS41 KCLE 301810
RWRCLE
OHIO REGIONAL WEATHER ROUNDUP
NATIONAL WEATHER SERVICE CLEVELAND, OH
200 PM EDT TUE SEP 30 2014

NOTE: "FAIR" INDICATES FEW OR NO CLOUDS BELOW 12,000 FEET WITH NO
SIGNIFICANT WEATHER AND/OR OBSTRUCTIONS TO VISIBILITY.

OHZ001>008-015>018-024>027-034-035-043-044-301900-
   NORTHWEST OHIO

CITY           SKY/WX    TMP DP  RH WIND       PRES   REMARKS
DEFIANCE       CLOUDY    57  46  66 NW6       29.99S
FINDLAY        CLOUDY    58  49  72 N7        29.96F
TOLEDO EXPRESS CLOUDY    57  49  74 N3        29.97S
TOLEDO EXEC    CLOUDY    57  50  77 N8        29.98S
LIMA             N/A    N/A N/A N/A MISG      29.98S
$$

OHZ009>014-019>023-028>033-038-089-301900-
   NORTHEAST OHIO

CITY           SKY/WX    TMP DP  RH WIND       PRES   REMARKS
CLE-HOPKINS    CLOUDY    60  55  83 NW12      29.96R
CLE-LAKEFRONT  CLOUDY    60  55  83 N10       29.93S
CUY CO. ARPT   CLOUDY    61  61 100 N12       29.94R FOG
LORAIN-ELYRIA  CLOUDY    62  54  74 N9        29.95F
ASHTABULA      CLOUDY    64  59  83 SW9       29.91F
AKRON-CANTON   CLOUDY    65  58  78 W5        29.91F
WOOSTER        LGT RAIN  61  57  87 N8        29.93S
MANSFIELD      CLOUDY    58  58 100 N9        29.94F
YOUNGSTOWN     CLOUDY    65  58  78 S8        29.91S
$$

OHZ042-051>053-060>062-070>072-077>081-301900-
  SOUTHWEST OHIO

CITY           SKY/WX    TMP DP  RH WIND       PRES   REMARKS
CINC-COVINGTON MOSUNNY   79  57  46 NE6       29.92F
CINC-LUNKEN    MOSUNNY   76  58  53 NW5       29.92F
HAMILTON       PTSUNNY   73  60  63 NW7       29.94F
DAYTON         CLOUDY    62  58  86 NW8       29.97S
WRIGHT-PAT AFB CLOUDY    63  58  84 NW6       29.95S
DAYTON GENERAL PTSUNNY   67  59  75 NW10      29.94F
WILMINGTON     PTSUNNY   74  58  57 NW10      29.92F
$$

OHZ036-037-039>041-045>050-054>059-063>069-073>076-082>088-301900-
  CENTRAL AND SOUTHEAST OHIO

CITY           SKY/WX    TMP DP  RH WIND       PRES   REMARKS
COLUMBUS       CLOUDY    64  59  83 NW7       29.92F HAZE
OSU AIRPORT    CLOUDY    60  57  89 N9        29.94R
BOLTON FIELD   CLOUDY    63  61  94 NW8       29.94S FOG
RICKENBACK AFB PTSUNNY   65  59  81 W6        29.92F
NEWARK         CLOUDY    66  60  81 NW7       29.92S
MARION         CLOUDY    56  53  90 NW10      29.96S FOG
LANCASTER      CLOUDY    66  59  78 CALM      29.92F
ZANESVILLE     PTSUNNY   66  60  81 VRB3      29.91F
NEW PHILLY     CLOUDY    66  61  84 NW3       29.92F
$$



USA.gov is the U.S. government's official web portal to all federal, state and local government web resources and services.